User: anonymous   Login
Location: Unspecified
(0.0000°N, 0.0000°E)
Time: 20:05:05
(UTC+00:00)
Language:

STARLINK-34233 - Orbit

View from above orbital plane
View from above orbital plane
View from above satellite
View from above satellite

Ground track
Ground track

The orbit is defined by the following mean orbital elements,

1 64172U          26145.54836486 +.00000000 +00000-0 +76227-3 0 00002
2 64172  53.1581  94.0518 0001154  74.3568 285.7561 15.31720021    02
Epoch (UTC): 25 May 2026 13:09:38
Eccentricity: 0.0001154
inclination: 53.1581°
perigee height: 470 km
apogee height: 471 km
right ascension of ascending node: 94.0518°
argument of perigee: 74.3568°
revolutions per day: 15.31720021
mean anomaly at epoch: 285.7561°

The dashed part of the orbit path shows where the satellite is in the earth's shadow,  

DLR